Wind_Speed
42 41 40 39 38 38 38 38 38 38 37 37 37 37 38 37 37 38 38 38 39 39 39 39 40 41 41 41 40 40 41 42 42 42 41 41 40 40 39 40 40 41 42 42 42 43 42 40 39 40 40 40 40 39 36 32 30 30 30 31 33 35 37 38 38 37 37 37 38 38 38 38 37 38 38 39 40 41 41 42 42 42 43 43 43 44
41 40 40 39 39 39 40 40 41 40 39 38 38 38 38 39 39 40 40 41 41 41 41 41 41 41 42 42 42 43 43 43 42 41 40 40 40 39 39 39 39 40 40 40 41 41 40 40 41 43 43 42 40 38 36 33 32 33 34 35 36 38 39 39 38 38 37 37 37 37 37 37 38 38 39 40 41 41 42 42 42 42 43 43 44 44
40 40 40 40 40 40 41 41 41 40 39 38 38 38 40 41 41 42 42 42 42 42 44 44 44 44 45 46 46 45 44 43 41 40 39 38 38 38 38 38 38 38 39 39 40 39 39 40 41 41 41 39 37 35 33 33 34 35 37 38 38 39 39 39 38 37 37 36 36 37 37 37 38 39 40 40 41 41 41 42 42 42 43 43 43 43
40 39 39 39 39 40 40 40 40 39 38 37 38 40 41 42 42 42 43 43 43 44 47 48 48 49 49 48 47 46 44 42 40 39 37 37 36 37 37 37 38 38 38 38 38 37 37 37 37 36 35 33 32 31 31 33 35 37 38 39 39 39 38 37 36 36 36 36 36 36 37 38 38 39 40 40 41 41 41 41 42 42 43 43 43 42
40 39 38 38 38 38 38 38 37 37 37 37 39 42 43 42 41 41 41 42 44 46 49 50 51 51 51 49 47 46 44 42 40 37 35 34 35 37 38 39 39 38 38 36 35 35 34 34 33 32 30 29 28 28 30 33 36 39 39 39 38 37 36 35 35 35 35 36 36 36 37 38 38 39 39 40 40 40 41 41 42 42 42 42 42 41
39 38 37 36 36 36 36 36 36 36 37 39 41 42 41 39 37 37 38 40 43 45 48 49 50 50 50 48 46 45 43 41 39 36 34 34 37 39 41 41 41 40 39 37 35 33 32 32 31 30 28 28 28 30 32 35 37 39 38 37 36 35 35 35 35 35 36 36 36 36 37 37 38 38 39 39 40 40 41 41 42 42 41 41 41 40
37 36 35 35 35 35 36 36 36 37 38 39 40 39 37 35 34 34 35 37 40 42 44 45 46 47 46 45 44 42 40 39 38 36 35 36 39 42 43 43 43 43 42 39 35 32 31 30 30 29 29 29 30 32 33 36 37 38 37 36 35 35 35 35 35 36 36 36 36 36 36 37 37 38 38 39 40 40 41 41 41 41 41 40 40 40
35 35 35 35 36 36 37 37 38 38 38 38 37 35 34 34 33 33 34 35 36 38 39 40 41 42 42 42 40 39 37 37 36 37 37 39 41 42 43 43 43 42 41 39 36 33 31 30 29 29 30 31 32 33 34 36 37 36 35 35 35 35 35 35 35 35 36 36 36 36 36 36 36 37 38 39 40 40 41 41 41 40 40 40 39 39
35 36 36 37 38 38 38 39 39 39 38 36 35 34 33 33 33 33 33 33 34 35 35 36 37 38 39 39 38 36 35 34 35 37 39 41 42 42 42 41 39 38 37 36 35 33 31 29 29 30 31 32 33 34 35 36 35 34 34 35 35 35 35 35 35 35 35 36 36 35 35 35 36 37 38 39 40 40 40 40 40 39 39 39 39 39
37 38 38 38 39 39 38 38 38 37 37 36 35 34 33 33 33 32 32 32 33 33 34 35 37 38 38 37 36 35 35 35 36 37 39 41 42 41 40 38 35 33 32 32 31 30 29 29 30 31 32 33 34 35 35 34 34 34 35 35 35 35 35 35 35 35 35 35 35 34 34 35 35 37 38 39 40 40 40 39 39 39 38 38 39 39
38 39 39 38 38 38 38 37 36 36 36 36 35 35 34 34 34 33 34 34 34 35 36 37 37 38 38 37 36 36 36 37 38 39 40 41 41 40 39 36 33 30 29 29 28 28 29 31 32 33 34 35 35 35 34 33 34 34 35 35 35 35 34 34 34 34 34 34 33 33 34 35 36 37 38 39 39 39 39 38 38 38 38 38 38 38
36 37 38 38 38 37 37 36 36 35 35 35 35 35 35 35 35 35 35 36 37 37 38 39 39 38 38 37 37 37 38 39 40 41 41 41 41 40 39 37 33 31 31 31 31 31 31 33 34 35 36 36 36 35 34 34 34 35 36 35 35 34 34 33 33 33 33 32 32 33 34 35 36 38 38 39 38 38 38 37 37 37 38 38 37 37
34 36 37 38 38 38 38 37 37 37 36 36 36 36 36 36 36 36 36 37 38 38 39 39 39 38 38 38 38 38 38 39 39 39 39 40 40 40 40 38 36 34 34 34 33 33 33 35 36 37 38 37 35 34 34 35 35 36 36 35 35 34 33 32 32 31 31 31 32 33 35 36 37 38 38 38 38 37 37 37 37 37 37 37 36 36
34 35 36 37 38 39 39 39 39 39 39 38 38 38 37 37 36 36 37 37 38 38 38 38 38 38 37 37 37 37 36 36 36 36 36 37 38 39 38 37 36 35 35 34 32 32 34 36 38 39 38 36 35 35 35 36 36 36 36 35 34 33 32 31 30 30 31 32 33 34 35 37 37 38 38 38 37 37 37 37 37 37 36 36 35 34
35 35 36 37 38 39 40 40 40 40 39 39 38 38 38 37 36 36 36 37 37 37 37 37 37 36 34 34 33 33 32 32 31 31 32 33 34 35 34 34 34 33 33 32 32 33 35 38 39 39 37 35 34 35 36 37 37 37 36 35 34 32 31 30 30 30 31 32 33 35 36 37 37 38 38 38 37 37 37 37 36 36 35 34 33 33
37 36 35 36 36 37 37 38 37 37 37 38 38 37 37 36 36 35 35 35 35 34 33 32 32 30 29 28 27 27 27 27 28 29 30 31 32 31 31 32 32 32 32 32 33 35 37 38 38 37 35 34 34 35 36 37 38 37 36 34 33 31 30 30 30 31 31 32 34 35 36 37 38 38 38 38 37 37 37 36 35 34 33 33 32 32
36 36 35 35 34 34 34 34 34 35 35 36 36 36 36 35 34 34 33 33 32 30 29 27 26 25 24 24 23 23 24 25 26 27 28 28 29 29 30 30 31 32 32 32 34 36 37 37 36 35 34 34 35 36 37 38 37 36 34 33 31 30 29 29 30 31 31 32 34 35 36 37 38 38 38 37 37 36 36 35 34 33 32 31 31 31
33 33 34 34 33 32 31 31 32 33 33 33 33 33 34 33 32 31 31 31 30 28 26 25 24 23 22 21 21 23 23 24 24 24 25 26 26 27 28 29 30 31 31 31 33 35 36 36 35 35 35 35 36 37 37 37 36 34 32 31 29 29 29 29 30 30 31 32 34 35 36 37 37 37 37 36 36 35 34 33 32 32 31 31 30 31
30 30 31 31 31 31 29 29 29 30 29 29 28 28 28 28 28 28 29 28 28 27 26 24 23 23 22 21 21 22 23 24 24 24 24 25 26 26 27 28 29 30 31 32 33 35 36 36 36 36 36 37 37 37 37 35 33 31 30 28 28 28 28 28 29 30 32 33 34 35 36 37 37 36 36 35 35 34 33 32 31 30 30 30 30 30
31 30 29 30 30 30 30 29 29 28 27 26 25 24 23 22 22 23 24 25 25 25 25 24 23 23 23 23 23 23 24 25 26 26 26 26 27 27 27 28 29 31 33 34 35 36 36 37 37 37 37 37 37 36 34 32 30 29 28 27 27 27 28 29 30 31 33 34 35 36 36 36 36 35 35 34 33 32 31 31 30 30 29 30 30 30
34 33 32 31 30 31 32 32 31 30 29 27 26 24 23 22 21 21 21 22 22 23 23 23 23 23 24 25 25 25 26 26 28 28 29 29 29 30 30 31 32 34 35 36 37 37 38 38 38 38 37 37 35 34 32 30 28 27 27 26 27 27 28 30 31 33 34 34 35 35 35 35 35 34 34 33 32 31 30 29 29 29 29 29 30 30
35 35 35 33 32 32 33 33 34 34 34 33 31 29 28 27 26 25 24 23 23 23 23 24 24 24 25 26 27 28 28 29 30 32 32 31 32 33 33 34 35 37 38 38 38 38 38 38 38 37 35 34 32 30 29 27 26 26 26 26 27 28 30 31 32 34 34 35 35 35 34 34 33 33 32 31 30 30 29 29 29 29 29 29 30 31
34 34 34 33 33 33 33 33 34 35 36 37 37 36 35 34 33 32 30 29 27 26 26 26 26 26 27 29 30 31 31 32 33 33 33 33 34 34 34 35 36 38 38 38 37 37 37 37 36 34 32 30 29 27 26 26 26 26 27 27 29 30 31 33 33 34 34 34 34 34 33 33 32 31 30 30 29 29 28 28 28 29 29 30 30 31
32 32 32 32 32 32 32 33 33 35 36 38 39 40 40 39 39 38 36 35 33 31 30 29 28 29 30 31 32 33 33 33 34 34 34 34 35 35 35 35 36 37 38 36 35 34 34 33 31 29 27 26 26 25 25 25 26 27 28 29 30 32 33 33 34 34 34 34 33 33 32 31 31 30 29 29 28 28 28 28 28 29 29 30 30 31
29 29 30 30 30 30 31 32 32 33 34 36 38 39 41 41 41 41 41 40 38 37 35 34 32 32 33 33 34 34 35 35 34 35 35 36 36 36 36 35 35 36 35 34 32 30 29 29 27 25 24 24 24 25 26 27 27 29 30 31 32 33 33 34 34 33 33 33 32 31 31 30 29 29 28 28 28 28 28 28 29 29 30 30 30 30
26 26 27 27 28 28 29 30 30 31 32 33 35 37 38 39 40 41 41 41 41 40 39 38 37 37 36 36 36 37 37 37 36 37 38 38 37 37 36 35 34 34 33 31 29 27 26 26 25 24 23 24 25 26 28 29 30 31 32 32 33 33 33 33 33 32 32 31 31 30 30 29 28 28 28 28 28 28 28 29 29 29 30 30 30 30
24 24 25 25 26 27 27 28 29 30 30 31 33 34 36 37 38 39 40 41 41 41 41 41 41 41 40 39 39 39 40 39 39 40 40 40 38 37 36 34 32 30 29 28 26 24 23 24 25 25 25 25 27 28 30 31 31 32 33 33 33 33 33 32 32 31 31 30 30 29 29 28 28 27 27 28 28 28 29 29 29 29 29 29 29 29
25 25 25 26 26 27 27 28 29 29 30 31 32 33 34 35 36 37 39 40 40 40 41 42 43 42 41 41 42 42 43 42 41 41 41 39 37 36 34 30 28 27 26 25 24 23 22 24 25 26 26 27 29 30 31 32 32 33 33 33 32 32 32 31 31 30 30 29 29 28 28 28 27 27 28 28 28 29 29 29 29 29 29 29 28 28
27 27 27 27 28 28 29 29 30 30 31 32 32 33 33 34 35 36 38 38 38 39 40 41 42 42 42 42 43 43 43 42 41 40 38 36 34 33 30 26 24 23 23 23 23 23 23 24 25 26 28 29 30 31 32 32 33 33 33 32 32 31 31 30 30 29 29 29 28 28 28 28 28 28 28 28 28 29 29 29 29 29 29 28 28 28
30 29 29 29 29 30 30 30 31 32 32 33 33 34 34 34 35 36 37 37 37 37 38 39 39 39 40 40 40 40 39 38 37 35 32 30 29 28 25 22 21 22 22 22 23 24 25 25 26 27 28 30 31 32 32 32 33 33 32 32 31 31 30 30 29 29 29 28 28 28 28 28 28 28 28 28 28 29 29 29 29 29 28 28 28 28
31 31 30 30 30 30 30 31 31 32 32 33 33 34 34 35 35 36 36 36 36 37 37 37 36 36 35 35 34 33 32 31 30 28 27 26 26 25 22 20 20 21 22 22 24 25 26 27 27 28 29 30 32 32 32 32 32 32 32 32 31 31 30 30 29 29 29 28 28 28 28 28 28 28 28 28 28 28 29 29 29 28 28 28 28 28
31 31 30 30 30 30 30 30 30 30 31 31 32 32 33 34 34 35 35 35 35 35 35 34 33 32 31 30 29 28 27 26 24 23 23 23 23 23 21 20 21 22 23 23 24 26 27 28 28 29 29 31 32 33 33 32 32 32 32 32 31 31 30 30 29 29 29 29 28 28 28 28 28 28 28 28 28 28 28 28 29 29 29 29 29 29
30 30 30 30 30 29 29 29 29 29 29 29 30 30 31 31 32 33 33 33 33 33 32 32 30 29 27 26 26 25 24 23 22 21 21 22 22 22 21 21 22 23 24 24 25 27 28 29 30 30 30 31 32 33 33 32 32 32 32 31 31 31 30 30 29 29 29 29 28 28 28 28 28 28 28 28 28 28 28 28 29 29 29 29 29 29
28 28 28 28 28 28 28 28 28 28 28 28 28 28 28 29 29 30 30 30 30 30 29 28 27 25 24 23 22 22 21 21 21 20 19 21 22 22 22 22 23 24 25 26 27 27 28 30 30 31 31 32 32 32 32 32 32 32 32 31 31 31 30 30 29 29 29 29 28 28 28 28 28 28 28 28 28 28 28 28 29 29 29 30 30 30
26 26 27 27 27 27 27 27 27 27 27 26 26 26 26 27 27 27 27 27 26 26 25 25 24 23 22 21 21 20 20 21 20 20 20 21 23 23 23 23 24 25 26 27 27 28 29 30 31 31 31 32 32 32 32 32 32 32 32 32 31 31 30 30 29 29 29 28 28 28 28 28 28 28 28 28 28 28 28 28 29 29 30 30 30 30
25 25 25 25 25 26 26 26 26 26 26 26 26 25 25 25 25 25 24 24 23 23 22 22 21 21 20 20 21 21 21 22 21 21 21 22 23 24 24 25 25 26 27 28 28 29 29 30 31 31 31 31 32 32 32 31 32 32 32 32 31 31 30 30 29 29 28 28 28 28 28 28 28 28 28 28 28 28 28 29 29 29 30 30 31 31
25 25 25 25 25 25 25 26 26 26 26 26 25 25 24 24 24 23 23 22 21 21 20 20 19 19 18 19 20 21 22 22 22 23 23 24 24 25 25 26 26 27 27 28 29 29 30 30 31 31 31 31 31 31 31 31 31 31 32 32 31 31 31 30 29 29 29 29 29 29 29 29 28 28 28 28 28 28 28 29 29 30 30 31 31 31
26 26 25 25 25 25 26 26 26 26 26 26 25 25 24 24 24 23 22 22 21 20 20 20 19 19 19 19 20 21 22 23 24 24 25 25 26 26 26 27 27 27 28 29 29 30 30 30 31 31 31 31 31 31 30 30 30 30 31 31 31 31 31 31 30 30 29 29 29 29 29 29 29 29 28 28 28 28 28 29 29 30 30 31 31 31
26 26 26 26 26 26 26 26 26 26 26 26 26 26 25 25 25 24 23 23 22 21 21 21 21 21 21 21 22 23 24 25 26 26 27 27 27 27 27 28 28 28 28 29 30 30 30 30 30 30 30 30 30 30 30 30 30 30 30 30 31 31 31 31 31 31 30 30 30 29 29 29 29 29 28 28 28 28 29 29 29 30 30 31 31 32
27 27 27 27 27 27 27 27 27 26 26 26 26 26 26 26 26 25 25 24 24 23 23 23 22 23 23 23 24 25 26 27 27 28 28 28 28 28 28 28 29 29 29 29 30 30 30 30 30 29 29 29 29 29 29 30 30 30 30 30 30 30 31 31 32 32 31 31 30 30 29 29 29 28 28 28 28 28 29 29 29 30 30 31 31 32
27 27 27 27 27 27 27 27 27 26 26 27 27 27 27 27 27 27 27 26 26 25 25 25 25 25 25 26 26 27 28 28 28 29 29 29 29 29 29 29 29 29 29 29 30 30 30 29 29 29 29 29 29 29 29 29 29 30 30 30 30 30 30 31 32 32 32 32 31 30 30 29 29 28 28 28 28 28 28 29 29 30 30 31 31 31
28 28 27 27 27 27 27 27 26 26 27 27 27 28 28 28 28 27 27 27 27 27 27 27 27 27 27 27 28 28 28 29 29 29 29 29 29 29 29 29 29 29 29 29 29 29 29 29 29 28 28 28 28 28 29 29 29 30 30 30 30 30 30 31 31 32 32 32 32 31 30 29 28 28 27 27 28 28 28 29 29 30 30 31 31 31
29 29 28 28 28 27 27 27 27 27 27 27 28 28 28 28 28 27 27 27 27 27 27 27 27 27 28 28 28 28 28 28 29 29 29 29 29 29 29 29 29 29 29 29 29 29 28 28 28 28 28 28 28 28 29 29 29 30 30 30 30 30 30 30 31 31 32 32 32 31 30 29 28 27 27 27 27 28 28 29 29 30 30 31 31 32
31 30 29 28 28 27 27 27 27 27 28 28 28 28 28 28 27 27 27 27 26 26 26 27 27 27 27 27 27 27 27 28 28 28 28 29 29 29 29 29 29 29 29 28 28 28 28 28 28 28 29 29 29 29 29 29 29 29 30 30 30 30 30 30 30 31 31 31 31 30 30 29 28 27 27 26 27 27 28 28 29 30 31 31 32 32
31 30 29 29 28 28 28 28 28 28 28 28 28 28 27 27 27 27 26 26 26 26 26 26 26 26 26 26 26 26 27 27 27 28 28 28 28 28 28 28 28 28 28 28 28 28 27 27 28 28 29 29 29 29 29 29 29 29 30 30 30 30 31 30 30 30 30 30 30 29 29 28 28 27 26 26 26 27 27 28 29 30 31 32 32 33
30 30 29 29 28 28 28 28 28 28 28 28 27 27 27 27 26 26 26 26 26 26 26 26 26 26 26 26 26 26 27 27 27 27 27 28 28 28 28 28 28 28 28 28 28 28 28 28 28 28 28 29 29 29 29 29 29 29 29 30 30 30 30 30 30 30 29 29 29 29 28 28 28 27 26 26 25 26 26 27 28 30 31 32 33 33
28 28 28 27 27 28 28 27 27 27 27 27 27 26 26 26 26 26 26 25 25 25 25 26 26 26 26 26 26 26 26 27 27 27 27 28 28 28 28 28 28 28 28 28 27 28 28 28 28 28 28 28 28 28 29 29 29 29 29 29 29 29 29 29 29 29 29 29 29 28 28 28 28 27 26 25 25 25 25 27 28 30 31 32 33 33
25 25 25 26 26 26 27 27 27 27 26 26 26 26 26 26 25 25 25 25 25 25 25 25 25 25 26 26 26 26 26 26 27 27 27 27 28 28 28 28 28 28 28 28 27 27 27 28 28 28 28 28 28 28 28 28 28 29 29 29 29 29 29 29 29 29 29 29 29 28 28 28 28 27 26 25 24 24 25 26 28 30 31 32 33 33
22 23 23 24 24 25 25 25 25 25 25 25 25 25 25 25 25 25 25 25 25 25 25 25 25 25 26 26 26 26 27 27 27 27 27 28 28 27 28 28 28 27 27 27 27 27 27 27 27 28 28 28 28 28 28 28 28 28 29 29 29 28 28 28 28 28 28 28 28 28 28 28 28 27 26 25 25 24 24 25 27 29 31 32 33 33
20 21 22 22 22 23 23 23 23 23 23 23 23 24 24 24 25 25 25 25 25 25 25 25 25 25 26 26 26 26 27 27 27 27 27 27 27 27 27 27 27 27 27 26 26 26 26 26 27 27 28 27 27 27 27 28 28 28 29 29 28 28 28 28 28 28 28 28 28 28 28 28 28 28 27 27 26 25 25 25 26 28 30 32 32 33
19 20 20 20 20 21 21 21 21 21 22 22 22 23 23 24 24 24 24 24 24 25 25 25 25 25 26 26 26 27 27 27 27 27 27 27 27 27 27 26 26 26 26 25 25 25 25 25 26 27 27 27 27 27 27 27 28 28 28 28 28 28 28 27 27 27 27 27 28 28 28 28 28 28 28 28 27 26 26 25 26 27 29 31 32 32
Wind_Direction
256 257 257 257 257 256 256 256 257 258 260 261 262 263 263 262 262 262 263 264 265 266 268 269 270 270 269 267 264 263 264 265 265 262 260 258 257 257 256 255 254 254 255 256 256 254 251 252 255 259 262 263 261 259 260 265 270 273 273 273 273 272 272 271 271 271 272 273 274 275 276 278 280 281 283 284 285 286 287 287 288 290 291 292 293 294
258 257 257 257 257 257 256 257 258 259 261 262 262 261 261 261 262 263 265 266 267 267 267 268 268 267 266 264 264 265 267 268 265 260 257 256 256 256 257 256 255 255 255 255 253 252 253 256 261 264 265 265 261 258 258 262 266 268 269 270 270 270 270 271 271 272 272 273 275 276 278 280 282 283 284 285 286 287 288 289 290 291 292 293 293 294
259 259 258 257 257 257 257 257 258 259 260 260 260 259 260 261 263 264 265 265 264 262 263 263 263 262 262 262 263 266 268 267 263 259 256 255 256 257 257 257 256 255 254 253 253 255 259 263 266 267 266 264 260 257 257 259 263 265 267 268 269 269 270 271 272 273 274 275 276 278 280 282 283 284 285 286 287 288 289 290 291 292 292 293 293 293
260 260 259 258 257 257 257 257 257 257 257 257 258 259 261 263 264 264 263 261 258 256 256 257 257 258 258 260 262 264 265 264 260 256 254 254 256 256 256 254 253 252 252 253 256 260 263 265 266 264 261 257 254 253 256 259 262 265 266 267 267 268 270 271 273 274 275 276 278 279 281 282 284 285 286 287 288 289 290 291 291 292 292 292 292 293
259 259 259 258 257 255 255 254 254 254 254 255 258 262 264 265 264 262 260 257 254 252 251 252 252 253 255 257 260 262 262 260 256 253 252 253 254 253 250 248 247 248 251 254 258 261 262 261 260 257 253 250 249 252 257 261 263 265 266 266 267 268 270 272 273 274 276 277 278 280 281 282 284 285 286 287 289 290 290 291 291 291 291 292 292 293
258 258 257 256 254 253 252 251 250 251 252 256 260 263 264 263 260 257 254 252 250 249 248 248 249 250 252 255 257 258 258 256 252 248 247 249 249 247 245 245 247 250 254 257 258 257 256 255 252 250 248 249 251 255 259 262 263 265 265 266 267 268 270 271 273 274 275 277 278 280 281 282 284 285 287 288 289 290 290 290 290 291 291 292 292 293
256 256 255 254 252 251 249 248 248 250 253 257 259 259 258 255 252 249 247 246 246 246 246 247 247 249 251 253 254 255 254 252 248 244 242 244 245 245 246 249 253 257 259 258 254 250 248 246 246 246 248 251 253 255 258 260 262 263 264 265 266 267 269 270 272 274 275 277 279 280 282 283 285 287 288 289 290 290 290 290 290 290 291 292 293 293
255 255 254 252 251 249 247 247 247 248 251 253 253 251 248 245 243 242 241 241 241 243 244 245 246 248 249 250 251 252 251 250 246 241 238 240 243 246 250 255 259 261 261 256 248 241 238 239 242 245 249 250 251 253 256 258 259 260 262 263 264 266 267 269 272 274 276 278 280 281 283 285 286 288 289 289 289 289 289 289 290 291 291 292 293 293
254 254 253 251 249 247 246 245 245 245 245 245 244 241 239 237 236 236 236 237 238 240 242 244 246 247 249 250 251 251 251 250 247 243 239 239 243 249 254 258 261 261 258 251 243 237 235 237 241 245 247 248 249 252 254 256 257 258 260 261 263 265 267 270 272 275 277 279 281 282 284 286 288 288 289 288 288 288 289 289 290 290 291 292 292 293
254 253 251 249 247 245 244 243 242 241 240 238 237 235 233 233 232 232 233 235 237 240 242 243 245 246 248 249 249 250 251 250 249 246 243 243 245 249 252 255 257 256 251 246 241 239 240 242 244 246 246 248 250 252 254 255 256 258 260 261 263 266 269 271 273 275 277 280 282 284 286 287 288 288 288 287 287 287 288 289 289 290 291 292 293 293
253 251 249 247 246 244 243 241 240 238 236 234 233 232 231 231 231 232 232 233 236 238 240 242 243 244 245 246 246 247 248 248 248 247 246 246 246 246 247 250 251 249 244 240 239 241 245 247 248 248 249 251 252 253 254 256 258 259 261 263 265 267 270 272 274 276 279 281 284 286 287 288 288 287 286 286 286 287 287 288 289 290 291 292 293 294
248 247 246 246 245 245 244 242 241 238 236 234 232 231 231 230 230 231 233 234 235 237 239 241 242 243 244 244 245 245 245 246 246 246 247 246 245 242 242 245 246 244 239 237 237 240 244 247 248 250 251 253 253 253 255 257 259 261 262 264 266 268 271 273 276 278 281 283 286 287 287 287 286 285 285 285 286 286 287 288 289 290 291 292 293 293
242 243 244 245 245 245 245 245 244 242 239 237 234 232 231 230 230 231 232 234 235 237 238 240 241 242 243 244 245 246 246 246 246 246 246 244 241 238 238 241 243 243 241 240 240 241 243 245 248 250 251 251 251 253 256 259 260 262 263 265 267 269 272 275 278 280 283 285 286 286 286 285 284 284 285 285 286 287 288 289 290 291 291 292 292 292
237 240 242 243 244 246 246 247 246 244 241 238 235 233 232 230 230 231 232 234 236 237 238 239 240 242 242 244 245 245 245 245 245 245 244 241 238 236 237 239 242 243 243 243 243 244 244 244 246 247 248 249 251 254 258 260 262 263 264 266 268 270 273 276 279 281 283 284 285 284 284 284 284 285 286 287 288 288 289 290 290 291 291 291 291 290
235 236 237 239 241 243 244 245 244 242 239 235 232 230 229 229 229 230 231 233 235 237 238 239 240 241 241 241 242 242 242 242 241 239 238 236 235 234 235 237 239 240 241 242 242 243 243 243 244 245 247 250 254 258 261 262 264 265 266 268 270 272 274 277 279 280 281 282 282 283 283 284 285 286 287 288 288 288 289 289 289 290 290 289 289 289
234 233 231 232 233 234 236 237 235 233 231 227 225 224 224 225 226 227 227 229 231 233 233 233 234 234 234 235 234 234 233 233 233 232 231 231 231 231 232 233 234 235 236 237 239 240 242 243 245 248 252 256 259 261 263 264 266 267 268 270 271 273 274 276 277 278 279 280 281 282 283 285 286 286 287 287 287 288 288 288 288 288 288 288 287 287
229 228 226 225 223 222 222 222 221 220 219 217 216 217 217 218 219 220 220 221 222 222 220 219 218 219 220 221 221 221 223 225 226 226 226 226 226 226 227 228 229 231 233 234 237 240 243 246 250 254 258 261 263 264 265 266 267 269 270 271 272 273 274 275 277 278 279 281 282 283 284 284 285 285 285 286 286 286 287 287 287 287 286 286 286 287
225 224 223 221 219 217 214 210 208 208 208 207 207 207 207 208 209 209 209 210 209 207 205 204 204 206 207 210 212 214 215 218 221 222 222 223 224 225 225 226 229 232 235 237 240 243 248 252 256 260 262 263 264 265 266 267 268 269 270 272 273 274 276 277 279 281 282 283 283 284 284 284 284 284 284 285 285 285 285 285 285 285 285 285 286 287
226 226 225 224 223 222 219 214 210 207 205 203 200 199 198 198 199 199 200 201 201 200 199 199 200 202 203 206 209 212 213 217 221 224 225 227 228 229 230 231 235 238 242 244 247 250 253 257 260 262 263 264 265 266 267 267 268 269 271 272 274 276 278 280 282 283 283 284 283 283 283 283 283 283 283 284 284 284 284 284 283 283 284 285 286 287
231 230 230 229 229 229 228 225 221 216 212 208 204 201 200 200 199 199 200 201 202 203 203 205 207 209 210 212 215 218 220 223 227 231 234 236 237 238 238 240 243 246 248 250 252 254 257 260 262 263 264 265 265 266 266 267 268 270 272 274 277 279 281 282 283 283 283 282 282 282 281 282 282 282 283 283 283 283 282 282 282 282 283 285 286 288
233 233 232 232 232 233 233 232 231 229 226 222 218 214 214 215 215 215 215 215 216 216 216 217 219 221 222 224 227 229 231 232 236 240 242 243 245 245 246 246 248 250 252 253 255 257 259 261 263 264 264 264 265 265 266 268 269 272 274 276 279 281 282 282 282 281 281 280 280 280 280 280 281 281 281 281 281 281 280 281 281 282 284 285 287 288
234 234 234 233 233 234 235 235 236 235 234 232 230 230 230 231 232 233 233 234 234 234 233 233 233 233 232 233 235 237 238 239 241 244 246 248 249 249 249 249 250 251 254 255 257 259 260 262 263 263 264 264 265 266 267 269 271 274 276 278 280 281 281 280 280 279 279 279 279 279 279 279 280 280 280 279 279 279 279 280 281 283 284 286 287 288
237 237 237 237 237 238 239 239 239 238 237 237 236 237 237 238 239 240 241 242 243 243 243 242 241 239 239 238 239 241 242 243 244 245 248 249 250 251 251 251 251 253 255 257 259 260 261 262 263 263 264 265 266 268 270 272 274 276 278 279 280 279 279 278 278 277 277 277 277 278 278 278 278 278 278 277 277 278 279 280 282 283 284 286 287 288
243 244 244 244 244 245 246 246 245 243 241 240 240 240 241 241 242 242 242 242 242 242 242 242 243 244 244 243 243 244 245 245 246 247 249 251 252 253 253 253 254 256 258 259 260 261 262 263 264 265 266 267 269 271 273 275 276 277 278 278 278 277 277 276 276 276 276 277 277 277 277 277 277 276 276 276 277 278 279 281 282 284 285 286 287 288
251 252 253 253 253 253 253 253 252 250 248 247 246 246 246 246 246 246 245 245 244 243 243 244 245 246 246 246 245 246 247 247 248 249 251 253 254 256 257 257 258 259 260 262 262 263 263 264 266 268 269 271 273 275 276 276 277 277 276 276 276 275 275 275 275 276 276 276 276 276 276 276 276 276 276 277 278 279 281 282 283 284 285 286 287 288
255 257 258 259 259 259 258 258 257 256 255 254 253 252 252 251 251 251 250 249 247 246 246 246 247 247 248 248 248 248 249 250 251 252 254 256 258 259 260 260 260 260 261 263 264 264 264 266 269 271 273 274 275 276 276 276 275 275 274 274 274 274 274 275 275 276 276 276 276 276 276 276 276 276 277 278 279 280 281 282 283 284 285 286 287 288
256 257 258 259 260 260 260 259 259 258 258 257 256 256 256 255 255 254 254 252 251 250 250 250 249 250 250 251 251 251 252 253 254 255 256 257 259 260 261 260 260 259 260 263 264 265 265 268 271 273 275 275 275 275 275 274 274 274 273 273 274 274 274 275 276 276 276 276 276 276 276 276 277 277 278 279 280 280 281 282 283 284 285 287 288 289
259 258 258 258 258 258 258 258 258 258 258 258 258 257 257 256 255 255 254 254 253 253 252 252 251 251 252 252 253 253 254 255 256 256 257 258 259 259 260 260 258 258 259 262 265 266 267 269 271 273 274 274 274 274 273 273 273 273 274 274 274 275 275 276 276 277 277 277 277 277 277 277 277 278 278 279 280 280 281 282 283 285 286 287 288 289
262 261 260 259 258 258 257 257 257 257 257 257 257 257 256 256 255 254 254 254 253 253 253 252 251 251 251 252 252 253 254 255 255 256 257 257 257 257 258 258 258 257 259 263 266 268 268 269 271 273 273 273 273 273 273 274 274 274 275 275 275 276 277 277 278 278 278 278 277 277 277 277 277 277 278 279 280 281 282 283 284 286 287 288 289 289
265 264 263 262 260 259 258 257 256 256 256 256 256 256 255 255 254 254 254 254 253 252 252 252 251 251 251 251 252 252 253 253 254 254 255 255 255 256 258 258 258 259 262 265 268 270 270 270 271 272 273 273 273 273 274 274 275 276 276 276 277 277 278 279 279 279 278 278 277 277 276 276 277 277 278 279 281 282 283 285 286 287 288 288 288 288
266 265 265 264 262 261 260 258 257 257 256 256 255 255 255 255 254 254 254 253 253 252 251 251 251 251 250 250 250 251 251 252 252 253 254 254 255 257 259 260 261 263 265 268 270 271 271 271 271 272 273 274 274 274 275 275 276 277 277 278 278 278 279 279 279 279 278 277 276 276 276 276 277 278 280 281 282 284 285 286 287 287 288 288 288 288
265 265 265 264 264 263 262 260 259 258 257 256 256 255 255 255 254 254 254 253 253 252 251 251 250 250 250 250 250 250 251 252 253 253 253 254 256 259 262 263 264 266 267 268 269 271 272 272 272 272 273 273 274 275 275 275 276 276 277 277 278 278 278 278 278 277 276 276 276 276 276 277 279 280 281 283 284 285 286 287 287 287 287 287 288 288
263 263 263 263 262 262 261 261 260 259 258 257 257 256 256 256 255 255 254 254 253 253 252 251 250 249 250 250 250 250 252 254 254 254 253 255 259 262 264 265 266 267 268 269 269 270 271 272 272 272 272 273 274 274 275 275 276 276 276 277 277 277 276 276 276 275 275 275 275 276 277 278 280 282 283 284 285 286 287 287 287 287 287 287 287 288
260 259 259 259 259 259 259 258 258 258 257 257 257 256 256 256 256 256 255 255 254 254 252 251 250 250 250 250 251 252 253 255 256 255 255 257 260 264 265 266 266 267 268 268 269 269 270 271 272 273 273 273 274 274 274 275 276 276 276 276 276 276 276 275 274 274 274 275 276 277 278 280 281 283 284 285 286 286 286 287 287 287 287 287 288 288
257 257 257 256 256 256 256 256 256 256 256 256 256 256 256 256 256 256 256 255 255 254 254 253 252 251 252 252 253 254 256 257 257 258 258 259 262 264 266 266 266 267 268 268 269 269 270 271 272 273 273 274 274 274 274 275 275 276 276 276 276 276 275 275 274 274 275 276 277 278 280 281 282 284 285 285 286 286 286 286 286 287 287 287 288 289
257 256 256 255 255 254 254 254 254 254 254 255 255 255 255 255 256 256 256 256 256 256 255 255 254 253 253 254 255 257 258 259 260 260 260 261 263 264 266 266 266 266 267 268 269 269 270 271 272 273 273 274 274 274 274 275 275 276 276 276 276 276 275 275 275 275 276 277 278 279 281 282 283 284 285 286 286 286 286 286 286 286 287 288 289 290
257 256 256 255 255 254 254 253 253 254 254 255 255 255 255 255 256 256 256 257 257 257 257 257 256 256 256 256 257 258 260 261 262 262 262 263 263 264 265 265 266 266 268 269 269 270 270 271 272 272 273 273 274 274 275 275 275 276 276 277 277 277 276 276 276 276 277 278 280 281 282 283 284 285 285 286 286 286 286 286 286 287 288 289 290 292
257 257 257 256 255 254 254 254 254 254 255 255 256 256 256 256 257 257 258 258 258 258 258 258 258 258 258 258 259 260 261 262 262 263 263 263 263 263 264 265 266 266 267 269 270 270 271 271 271 272 273 273 273 274 274 274 274 275 275 276 277 277 277 277 277 278 279 280 281 282 283 284 285 285 285 285 285 286 286 286 287 288 289 290 292 293
258 257 257 256 255 255 254 254 255 256 256 257 258 258 258 258 258 258 258 258 258 258 258 259 259 259 259 259 259 260 260 261 261 262 262 262 263 263 264 265 266 266 267 269 270 271 271 271 271 272 272 272 272 273 273 273 273 272 273 274 275 276 278 278 279 279 280 281 282 282 283 284 284 285 285 285 285 286 286 287 288 289 290 292 293 295
258 257 257 256 256 255 255 256 256 257 258 259 260 260 260 260 259 259 258 258 258 257 257 257 257 258 258 258 258 258 259 259 260 261 261 261 262 262 263 265 266 267 268 268 269 270 271 271 271 272 272 271 271 271 271 271 271 271 271 271 273 274 276 278 279 280 281 281 282 282 283 284 284 285 285 285 286 286 287 288 288 290 291 292 294 295
258 257 257 257 257 256 256 257 258 259 260 261 262 262 262 261 260 259 258 257 256 255 255 255 255 255 256 256 256 256 257 257 258 259 260 260 261 262 263 265 266 267 268 269 269 270 271 271 271 271 271 270 270 269 269 269 269 270 270 270 271 272 274 276 278 280 281 281 282 282 283 284 284 284 285 285 286 286 287 288 289 290 291 292 293 294
257 257 257 257 258 258 258 258 259 260 260 261 262 263 263 262 261 259 257 256 254 253 253 253 252 253 253 253 254 254 255 255 256 257 258 260 261 262 263 265 266 267 268 269 269 270 270 271 271 270 269 269 268 267 267 267 268 268 269 270 271 272 273 275 276 278 280 281 282 282 283 283 284 284 284 285 286 286 287 288 289 290 291 292 293 293
256 256 257 257 257 258 258 259 260 260 261 261 262 262 262 261 260 258 257 255 254 253 252 251 251 251 251 251 252 253 253 254 255 256 258 259 261 262 264 265 266 267 268 269 269 269 270 270 269 269 268 267 266 266 265 266 266 267 268 269 271 272 273 274 275 277 278 280 281 282 283 283 284 284 284 285 285 286 287 288 289 290 291 292 292 293
255 255 256 256 257 257 258 259 260 260 260 261 261 260 260 259 259 257 256 254 253 252 251 251 250 250 250 250 251 251 252 254 255 256 258 260 261 263 264 266 267 268 268 269 269 269 269 268 268 267 267 266 265 265 265 265 266 267 268 269 271 272 273 274 275 276 277 279 280 282 283 283 284 284 284 284 285 286 287 288 289 290 291 292 292 293
254 254 254 255 256 257 258 259 259 260 260 259 259 259 258 258 257 256 255 254 253 252 251 250 250 250 250 250 251 252 253 254 256 257 259 261 263 264 266 267 268 269 269 269 268 268 267 266 266 265 265 265 265 265 265 265 266 267 268 269 271 272 273 274 275 276 277 279 280 281 282 283 283 283 283 284 285 286 287 289 290 291 291 292 292 293
253 253 254 255 255 256 257 258 258 258 258 258 257 257 256 255 255 254 253 252 252 251 251 251 251 251 251 252 252 253 254 256 258 259 261 263 265 266 267 268 268 269 268 268 267 267 266 265 264 264 264 264 265 265 266 266 266 267 268 270 271 272 274 275 276 277 278 279 280 281 281 282 282 282 282 283 284 286 287 289 290 291 291 292 292 292
253 253 253 254 254 255 255 256 256 257 257 256 255 255 254 253 252 252 252 251 251 251 251 252 252 252 253 254 255 256 257 258 260 262 263 264 265 266 267 268 268 267 267 266 266 265 265 264 264 264 264 264 264 265 266 267 268 269 269 270 272 273 275 276 277 278 279 280 280 281 281 281 281 282 282 283 284 286 288 289 290 290 291 291 291 291
253 253 253 254 254 254 254 254 255 254 254 253 253 252 252 251 251 250 250 251 251 251 252 252 253 254 255 256 257 258 259 260 261 263 264 264 265 266 266 266 266 266 265 265 264 264 263 263 263 263 264 264 265 266 267 268 269 270 271 272 273 274 275 276 278 279 280 280 281 281 281 282 282 282 283 283 284 286 287 288 289 289 290 290 290 291
254 254 254 254 254 254 254 254 253 253 252 251 250 250 250 250 250 249 249 250 251 251 252 253 254 255 256 257 258 259 260 261 262 263 263 264 264 264 264 264 264 264 264 263 263 263 263 263 263 264 264 265 266 267 268 269 270 271 272 273 274 275 276 277 278 279 280 281 282 282 282 283 283 283 284 284 284 284 285 286 287 288 288 289 290 290
257 256 255 255 255 254 254 254 253 252 251 250 249 248 248 249 249 249 250 250 251 252 253 254 255 256 257 258 259 260 261 261 262 262 263 263 263 263 263 263 263 263 262 262 262 262 263 264 264 265 265 266 268 269 270 270 271 272 273 274 276 276 277 278 279 280 281 282 282 283 283 284 284 284 285 284 284 284 284 285 285 286 287 288 289 290
259 258 257 256 255 254 254 253 252 251 250 249 248 248 248 249 249 250 250 251 251 252 253 254 255 256 257 258 259 260 261 261 262 262 262 262 262 262 261 262 262 262 262 262 262 262 263 265 266 267 267 267 268 270 272 272 273 274 275 276 277 278 279 279 280 281 282 282 283 283 284 284 284 284 284 285 285 285 284 285 285 286 287 288 289 290
Height
3058 3060 3061 3062 3063 3064 3065 3066 3067 3067 3068 3068 3069 3069 3069 3070 3070 3071 3072 3072 3072 3072 3073 3073 3073 3073 3074 3075 3076 3077 3077 3076 3076 3076 3076 3077 3077 3078 3078 3079 3080 3080 3081 3082 3083 3084 3085 3085 3084 3084 3083 3084 3084 3084 3084 3084 3084 3084 3084 3084 3084 3084 3084 3083 3083 3082 3082 3082 3082 3082 3081 3081 3080 3080 3079 3079 3078 3078 3077 3076 3076 3075 3074 3072 3072 3071
3055 3057 3058 3059 3060 3061 3062 3062 3063 3064 3065 3066 3066 3067 3067 3067 3067 3068 3068 3069 3069 3070 3070 3070 3071 3071 3072 3072 3073 3073 3073 3073 3073 3074 3074 3075 3075 3076 3077 3077 3077 3078 3078 3080 3081 3082 3082 3082 3081 3080 3080 3080 3081 3082 3082 3082 3082 3082 3082 3082 3082 3082 3081 3081 3080 3080 3080 3079 3079 3079 3078 3078 3078 3077 3077 3076 3076 3075 3074 3073 3072 3072 3070 3069 3068 3067
3052 3053 3055 3056 3057 3058 3058 3059 3060 3061 3062 3062 3063 3064 3064 3064 3065 3065 3066 3066 3067 3067 3068 3068 3069 3069 3069 3070 3070 3070 3070 3070 3071 3071 3072 3072 3073 3074 3074 3075 3075 3076 3077 3079 3080 3079 3079 3078 3077 3077 3077 3077 3078 3078 3079 3079 3079 3079 3079 3079 3079 3079 3078 3078 3077 3077 3077 3077 3076 3076 3076 3075 3075 3074 3074 3073 3072 3072 3071 3070 3069 3068 3067 3066 3065 3064
3049 3050 3051 3053 3054 3055 3055 3056 3057 3058 3059 3059 3060 3061 3061 3062 3062 3062 3063 3064 3065 3066 3066 3066 3067 3067 3067 3067 3067 3067 3067 3067 3068 3068 3069 3070 3071 3072 3072 3073 3075 3076 3077 3077 3077 3076 3075 3075 3075 3075 3075 3075 3075 3076 3076 3077 3077 3076 3076 3076 3076 3076 3075 3075 3075 3075 3074 3074 3073 3073 3072 3072 3072 3071 3071 3070 3069 3068 3068 3067 3066 3065 3064 3063 3062 3062
3046 3047 3048 3049 3051 3051 3052 3053 3054 3055 3056 3057 3057 3057 3058 3058 3059 3060 3060 3061 3062 3063 3064 3064 3064 3064 3064 3065 3065 3064 3064 3064 3065 3066 3067 3068 3069 3070 3072 3072 3073 3073 3072 3072 3072 3072 3072 3073 3073 3072 3072 3072 3072 3073 3074 3074 3074 3074 3073 3073 3073 3072 3072 3072 3072 3072 3071 3071 3070 3070 3070 3069 3069 3068 3068 3067 3066 3066 3065 3064 3063 3062 3062 3061 3060 3059
3043 3044 3045 3047 3047 3048 3049 3050 3051 3052 3053 3054 3054 3054 3055 3055 3056 3057 3057 3058 3059 3060 3061 3061 3062 3062 3062 3062 3062 3062 3062 3062 3062 3063 3064 3066 3068 3069 3070 3069 3068 3068 3068 3068 3069 3069 3070 3070 3070 3070 3069 3069 3070 3071 3071 3071 3071 3071 3070 3070 3070 3070 3069 3069 3069 3069 3068 3068 3067 3067 3067 3066 3066 3065 3065 3064 3063 3062 3062 3061 3061 3060 3059 3058 3057 3056
3041 3042 3042 3044 3044 3045 3046 3047 3048 3049 3050 3050 3050 3051 3051 3052 3053 3053 3054 3055 3056 3057 3057 3058 3058 3059 3059 3058 3058 3058 3058 3059 3059 3061 3062 3064 3066 3067 3066 3065 3065 3064 3065 3065 3066 3066 3067 3067 3067 3067 3067 3067 3067 3068 3068 3068 3068 3068 3067 3067 3067 3067 3066 3066 3066 3066 3065 3065 3064 3064 3063 3063 3063 3062 3062 3061 3060 3060 3059 3059 3058 3057 3056 3055 3054 3053
3038 3039 3040 3041 3041 3042 3043 3044 3045 3045 3046 3046 3047 3047 3048 3049 3050 3050 3051 3052 3052 3053 3054 3055 3055 3055 3055 3055 3055 3055 3056 3056 3057 3058 3060 3061 3062 3062 3062 3062 3061 3062 3062 3062 3062 3063 3063 3064 3064 3065 3065 3065 3065 3065 3065 3065 3065 3064 3064 3064 3063 3063 3063 3063 3063 3062 3062 3062 3061 3061 3060 3060 3060 3059 3059 3058 3058 3057 3057 3056 3055 3054 3053 3052 3051 3050
3036 3036 3037 3037 3038 3039 3040 3040 3041 3042 3042 3043 3043 3044 3045 3046 3047 3047 3048 3049 3049 3050 3051 3052 3052 3052 3052 3052 3052 3052 3052 3053 3054 3055 3056 3057 3058 3059 3059 3058 3058 3058 3058 3059 3059 3060 3060 3061 3062 3062 3062 3062 3062 3062 3062 3062 3062 3061 3060 3060 3060 3060 3060 3060 3059 3059 3059 3058 3058 3058 3057 3057 3057 3057 3056 3056 3055 3055 3054 3053 3053 3052 3051 3050 3048 3047
3033 3034 3034 3034 3035 3035 3036 3037 3037 3038 3039 3040 3040 3041 3042 3043 3044 3044 3045 3046 3047 3047 3048 3049 3049 3049 3049 3049 3049 3049 3050 3051 3052 3052 3053 3054 3056 3056 3056 3056 3055 3055 3055 3056 3057 3057 3058 3059 3059 3060 3060 3059 3059 3059 3059 3059 3058 3057 3057 3057 3057 3057 3057 3057 3056 3056 3056 3055 3055 3055 3054 3054 3054 3054 3054 3053 3053 3052 3052 3051 3050 3049 3048 3047 3046 3045
3030 3031 3031 3031 3032 3032 3033 3034 3034 3035 3037 3037 3037 3038 3039 3040 3041 3042 3042 3043 3044 3045 3046 3046 3047 3047 3047 3047 3047 3048 3048 3049 3049 3050 3051 3052 3053 3053 3053 3053 3052 3053 3053 3053 3054 3056 3057 3057 3057 3057 3057 3057 3057 3056 3056 3055 3054 3054 3055 3055 3054 3054 3054 3053 3053 3053 3052 3052 3052 3052 3052 3052 3052 3052 3051 3051 3051 3050 3049 3048 3047 3046 3045 3044 3043 3042
3027 3027 3027 3028 3029 3030 3031 3031 3032 3033 3034 3034 3035 3035 3036 3037 3038 3039 3039 3040 3041 3042 3042 3043 3044 3044 3045 3045 3045 3046 3047 3047 3047 3047 3048 3049 3050 3050 3051 3051 3050 3051 3051 3052 3053 3054 3055 3055 3055 3054 3054 3054 3053 3052 3052 3051 3051 3051 3052 3052 3051 3051 3050 3050 3050 3050 3050 3050 3049 3049 3049 3049 3049 3049 3049 3048 3048 3047 3046 3045 3044 3043 3042 3041 3040 3039
3023 3024 3025 3026 3026 3027 3028 3029 3030 3031 3032 3032 3032 3033 3033 3034 3035 3036 3036 3037 3038 3039 3040 3040 3041 3041 3042 3042 3043 3043 3044 3044 3044 3045 3045 3046 3047 3047 3048 3048 3049 3049 3050 3050 3051 3051 3051 3052 3052 3051 3051 3050 3049 3048 3048 3048 3048 3048 3049 3048 3048 3048 3047 3047 3047 3047 3047 3047 3047 3047 3047 3047 3047 3047 3046 3046 3045 3044 3043 3042 3041 3040 3039 3038 3037 3037
3021 3022 3023 3023 3024 3025 3026 3027 3027 3028 3029 3029 3030 3030 3031 3031 3032 3033 3033 3034 3034 3035 3036 3037 3037 3038 3039 3039 3040 3040 3040 3041 3041 3042 3042 3043 3044 3045 3046 3047 3047 3047 3047 3048 3048 3048 3048 3048 3048 3047 3047 3046 3045 3045 3045 3045 3046 3046 3046 3046 3045 3045 3045 3045 3045 3045 3045 3045 3045 3045 3045 3045 3045 3044 3043 3043 3042 3041 3040 3039 3039 3038 3037 3036 3035 3034
3019 3020 3021 3021 3022 3022 3023 3024 3025 3026 3026 3027 3027 3027 3028 3028 3029 3029 3030 3031 3031 3032 3033 3034 3034 3035 3035 3036 3037 3037 3037 3038 3038 3039 3040 3041 3042 3042 3043 3044 3044 3044 3045 3045 3044 3044 3044 3044 3044 3043 3042 3042 3042 3042 3043 3043 3044 3044 3044 3043 3043 3042 3042 3042 3042 3042 3042 3043 3043 3043 3043 3042 3042 3042 3041 3040 3039 3038 3037 3037 3036 3035 3034 3033 3033 3032
3017 3018 3019 3019 3019 3020 3021 3022 3022 3023 3023 3023 3024 3024 3025 3025 3026 3026 3027 3027 3028 3029 3030 3031 3032 3032 3033 3033 3034 3035 3035 3036 3036 3037 3037 3038 3039 3040 3040 3041 3041 3041 3041 3041 3041 3040 3041 3041 3041 3040 3040 3040 3040 3041 3041 3042 3042 3042 3041 3041 3040 3040 3040 3040 3040 3041 3041 3041 3041 3040 3040 3040 3039 3039 3038 3037 3037 3036 3035 3034 3033 3032 3032 3031 3030 3030
3016 3017 3017 3017 3017 3017 3018 3018 3019 3019 3019 3020 3020 3021 3022 3022 3022 3023 3024 3025 3026 3026 3027 3028 3029 3030 3031 3031 3032 3032 3033 3033 3034 3034 3035 3035 3036 3036 3036 3037 3037 3036 3036 3037 3037 3038 3038 3038 3038 3038 3038 3038 3038 3039 3039 3039 3039 3039 3039 3038 3038 3038 3038 3038 3038 3038 3038 3038 3038 3038 3037 3037 3037 3036 3036 3035 3034 3033 3032 3032 3031 3030 3029 3028 3028 3027
3015 3016 3016 3016 3016 3016 3016 3016 3016 3017 3017 3017 3017 3017 3018 3019 3019 3020 3021 3022 3022 3023 3024 3025 3026 3027 3027 3028 3029 3030 3030 3031 3031 3031 3031 3032 3031 3031 3032 3032 3032 3032 3033 3034 3035 3036 3036 3036 3036 3036 3036 3036 3037 3037 3037 3037 3037 3037 3036 3036 3036 3036 3036 3036 3036 3036 3036 3036 3036 3035 3035 3035 3034 3034 3033 3032 3031 3030 3030 3029 3028 3027 3027 3026 3025 3025
3015 3015 3015 3016 3016 3016 3016 3016 3015 3015 3015 3015 3015 3016 3016 3016 3017 3017 3018 3019 3020 3021 3021 3022 3022 3023 3024 3025 3026 3026 3027 3027 3027 3027 3027 3027 3027 3027 3028 3028 3029 3030 3031 3032 3032 3033 3033 3033 3033 3034 3034 3034 3035 3035 3034 3034 3034 3034 3034 3034 3034 3034 3034 3033 3033 3033 3033 3033 3033 3033 3032 3032 3032 3031 3030 3029 3028 3027 3027 3026 3025 3025 3024 3023 3023 3022
3014 3014 3015 3015 3016 3016 3016 3016 3016 3016 3016 3015 3015 3015 3016 3015 3015 3016 3017 3017 3018 3018 3019 3020 3020 3021 3022 3022 3023 3023 3024 3024 3024 3024 3024 3024 3024 3025 3025 3026 3027 3027 3028 3029 3030 3031 3032 3031 3031 3032 3032 3032 3032 3032 3032 3032 3032 3031 3031 3031 3031 3031 3031 3031 3031 3031 3031 3030 3030 3030 3030 3029 3028 3028 3027 3026 3025 3025 3024 3023 3023 3022 3021 3021 3020 3019
3012 3012 3012 3013 3014 3014 3015 3015 3016 3016 3016 3016 3015 3015 3015 3015 3015 3015 3015 3016 3016 3017 3017 3018 3018 3019 3019 3020 3020 3021 3021 3022 3022 3022 3022 3022 3022 3023 3024 3025 3025 3026 3026 3027 3028 3029 3029 3029 3029 3029 3029 3030 3029 3029 3029 3029 3029 3028 3028 3028 3028 3028 3028 3028 3028 3028 3028 3028 3027 3027 3027 3026 3025 3025 3024 3023 3022 3022 3021 3021 3020 3019 3019 3018 3017 3016
3009 3009 3009 3010 3011 3012 3012 3012 3013 3014 3015 3015 3015 3014 3014 3014 3014 3014 3014 3015 3015 3015 3016 3016 3016 3017 3017 3017 3018 3018 3018 3019 3019 3019 3019 3021 3021 3022 3022 3024 3024 3024 3024 3025 3026 3027 3027 3027 3026 3026 3027 3027 3027 3026 3026 3026 3026 3026 3026 3026 3025 3025 3025 3025 3025 3025 3025 3025 3025 3024 3023 3023 3022 3022 3021 3020 3020 3019 3018 3018 3017 3017 3016 3015 3015 3014
3007 3007 3007 3008 3009 3009 3009 3010 3011 3012 3012 3012 3013 3012 3012 3013 3013 3013 3013 3013 3014 3014 3014 3014 3014 3015 3015 3015 3015 3015 3016 3017 3017 3018 3018 3019 3020 3020 3021 3022 3023 3022 3022 3022 3023 3024 3024 3024 3023 3023 3024 3024 3024 3023 3023 3023 3023 3023 3023 3023 3023 3023 3023 3023 3023 3023 3023 3022 3022 3021 3021 3020 3019 3018 3018 3017 3017 3016 3016 3015 3015 3014 3013 3013 3012 3012
3006 3006 3007 3007 3007 3008 3008 3008 3008 3009 3009 3010 3010 3010 3010 3011 3011 3011 3011 3011 3012 3012 3012 3012 3012 3013 3013 3013 3013 3014 3014 3015 3016 3017 3017 3017 3017 3018 3019 3020 3021 3020 3020 3020 3021 3021 3021 3021 3021 3021 3022 3022 3021 3021 3021 3021 3021 3021 3021 3021 3021 3021 3021 3021 3021 3021 3020 3020 3019 3018 3017 3017 3016 3016 3015 3015 3014 3013 3013 3012 3012 3012 3011 3010 3010 3009
3004 3004 3005 3005 3006 3006 3007 3007 3007 3007 3007 3008 3008 3008 3008 3008 3009 3009 3009 3009 3009 3009 3009 3010 3010 3011 3011 3011 3012 3012 3012 3013 3014 3015 3015 3015 3015 3015 3016 3017 3018 3018 3017 3017 3017 3018 3019 3018 3018 3018 3019 3019 3019 3019 3019 3019 3019 3019 3019 3019 3019 3019 3019 3019 3018 3018 3017 3017 3016 3016 3015 3014 3014 3013 3012 3012 3012 3011 3011 3010 3010 3009 3009 3008 3007 3007
3002 3002 3002 3003 3003 3004 3004 3005 3005 3005 3006 3006 3006 3006 3006 3007 3007 3007 3007 3007 3007 3007 3008 3008 3008 3008 3008 3009 3010 3010 3010 3011 3012 3013 3013 3013 3013 3013 3013 3014 3015 3015 3015 3014 3015 3016 3017 3017 3016 3016 3017 3017 3017 3017 3017 3017 3017 3017 3017 3017 3017 3017 3016 3016 3015 3015 3014 3014 3013 3012 3012 3012 3011 3011 3010 3009 3009 3009 3008 3008 3007 3007 3007 3006 3005 3004
3000 3000 3001 3001 3002 3002 3002 3002 3003 3003 3003 3004 3004 3004 3004 3005 3005 3005 3005 3005 3005 3006 3007 3007 3007 3006 3007 3008 3008 3008 3008 3009 3010 3011 3011 3011 3011 3011 3010 3011 3012 3013 3012 3012 3012 3013 3014 3014 3014 3014 3015 3015 3015 3015 3015 3015 3015 3015 3015 3015 3014 3014 3013 3013 3012 3012 3011 3011 3010 3010 3009 3009 3008 3008 3007 3007 3007 3006 3006 3006 3005 3005 3004 3003 3002 3002
2997 2998 2998 2999 2999 3000 3000 3000 3001 3001 3001 3002 3002 3002 3002 3003 3003 3003 3003 3002 3003 3004 3005 3005 3004 3005 3005 3006 3007 3007 3007 3007 3008 3008 3008 3009 3009 3008 3007 3008 3010 3010 3010 3010 3010 3011 3012 3012 3012 3012 3012 3013 3013 3013 3013 3013 3013 3013 3012 3012 3012 3011 3010 3010 3009 3008 3008 3007 3007 3007 3007 3006 3006 3006 3005 3005 3004 3004 3004 3003 3003 3002 3001 3001 3000 2999
2995 2996 2996 2997 2997 2997 2997 2998 2998 2999 2999 2999 3000 3000 3000 3001 3001 3001 3000 3000 3002 3002 3002 3002 3002 3003 3003 3004 3004 3004 3005 3005 3005 3005 3006 3007 3006 3005 3005 3006 3007 3008 3007 3007 3008 3008 3009 3010 3010 3010 3011 3011 3011 3011 3011 3011 3011 3010 3010 3009 3008 3008 3007 3006 3006 3005 3005 3004 3004 3004 3004 3004 3004 3003 3003 3003 3002 3002 3001 3001 3000 2999 2998 2998 2997 2997
2993 2994 2994 2994 2995 2995 2995 2996 2996 2996 2997 2997 2997 2998 2998 2998 2998 2998 2998 2998 2999 3000 3000 3000 3000 3000 3001 3002 3002 3002 3002 3002 3002 3003 3004 3004 3003 3003 3003 3004 3005 3005 3005 3006 3006 3006 3007 3007 3008 3008 3009 3008 3008 3009 3009 3008 3008 3007 3006 3006 3005 3004 3004 3003 3003 3002 3002 3002 3002 3002 3002 3002 3002 3001 3001 3000 3000 2999 2999 2998 2997 2997 2996 2995 2995 2994
2992 2992 2992 2992 2992 2993 2993 2993 2994 2994 2994 2995 2995 2995 2995 2996 2996 2996 2996 2997 2997 2997 2997 2997 2997 2998 2998 2999 2999 2999 2999 2999 3000 3001 3002 3002 3001 3000 3001 3002 3003 3003 3003 3004 3004 3004 3004 3005 3006 3007 3007 3006 3006 3006 3006 3006 3005 3004 3003 3002 3002 3001 3001 3001 3000 3000 3000 3000 3000 3000 3000 2999 2999 2999 2998 2998 2997 2997 2996 2995 2994 2994 2993 2993 2992 2992
2990 2990 2990 2991 2991 2991 2991 2991 2991 2992 2992 2992 2993 2993 2993 2993 2993 2994 2994 2994 2994 2995 2995 2995 2995 2995 2996 2996 2997 2997 2997 2997 2998 2999 2999 2999 2999 2998 2999 3000 3001 3001 3002 3002 3002 3002 3002 3003 3003 3004 3004 3004 3003 3003 3003 3002 3002 3001 3000 2999 2999 2998 2998 2998 2998 2998 2997 2997 2997 2997 2997 2997 2997 2997 2996 2995 2995 2994 2993 2992 2992 2991 2991 2990 2990 2989
2988 2988 2988 2989 2989 2989 2989 2989 2989 2990 2990 2990 2990 2991 2991 2991 2991 2992 2992 2992 2992 2992 2992 2992 2993 2993 2993 2994 2994 2995 2995 2995 2996 2996 2997 2997 2997 2997 2997 2998 2999 2999 2999 3000 3001 3001 3001 3001 3001 3002 3002 3002 3001 3001 3000 2999 2999 2998 2997 2997 2996 2996 2996 2996 2996 2995 2995 2995 2995 2995 2995 2995 2994 2994 2993 2993 2992 2992 2991 2990 2989 2988 2988 2987 2987 2987
2986 2986 2986 2987 2987 2987 2987 2987 2987 2988 2988 2988 2988 2988 2989 2989 2989 2989 2990 2990 2990 2990 2991 2991 2991 2991 2992 2992 2992 2993 2993 2993 2993 2994 2995 2995 2995 2995 2996 2997 2997 2997 2998 2998 2999 2999 2999 2999 2999 2999 2999 2999 2999 2998 2997 2997 2996 2995 2995 2994 2994 2993 2993 2993 2993 2993 2993 2993 2992 2992 2992 2992 2992 2991 2991 2990 2990 2989 2988 2987 2987 2986 2985 2985 2984 2984
2984 2984 2984 2984 2985 2985 2985 2985 2986 2986 2986 2986 2986 2987 2987 2987 2987 2987 2988 2988 2988 2988 2989 2989 2989 2990 2990 2991 2991 2991 2991 2991 2992 2992 2993 2993 2993 2993 2994 2995 2995 2996 2996 2996 2997 2997 2997 2997 2997 2997 2997 2997 2996 2996 2996 2995 2994 2993 2992 2992 2991 2991 2990 2990 2991 2990 2990 2990 2990 2990 2990 2990 2989 2989 2988 2988 2987 2987 2986 2985 2984 2983 2983 2982 2981 2981
2982 2982 2982 2982 2983 2983 2983 2983 2984 2984 2984 2984 2984 2985 2985 2985 2985 2986 2986 2986 2987 2987 2987 2987 2987 2988 2988 2989 2989 2989 2989 2989 2990 2990 2991 2991 2992 2992 2992 2993 2993 2994 2994 2994 2995 2995 2996 2995 2995 2995 2995 2994 2994 2993 2993 2992 2992 2990 2989 2989 2988 2988 2988 2988 2988 2988 2988 2988 2987 2987 2987 2987 2987 2986 2986 2985 2985 2984 2983 2982 2982 2981 2980 2979 2978 2977
2980 2980 2980 2981 2981 2981 2981 2981 2982 2982 2982 2982 2983 2983 2983 2983 2983 2984 2984 2984 2985 2985 2985 2986 2986 2986 2987 2987 2987 2987 2987 2988 2988 2989 2989 2990 2990 2991 2991 2991 2992 2992 2992 2992 2992 2993 2993 2993 2993 2993 2992 2992 2991 2990 2990 2989 2989 2988 2987 2986 2986 2985 2985 2985 2986 2986 2985 2985 2985 2985 2985 2985 2984 2984 2983 2983 2982 2982 2981 2980 2979 2978 2977 2976 2975 2974
2977 2978 2978 2978 2979 2979 2979 2979 2980 2980 2981 2981 2981 2981 2982 2982 2982 2982 2982 2982 2983 2983 2983 2984 2984 2985 2985 2985 2986 2986 2986 2986 2987 2987 2987 2988 2988 2989 2989 2989 2990 2990 2991 2991 2991 2991 2991 2991 2991 2990 2990 2990 2989 2988 2987 2987 2986 2986 2985 2984 2983 2982 2982 2982 2983 2983 2983 2983 2983 2982 2982 2982 2982 2981 2981 2980 2980 2979 2978 2977 2976 2975 2974 2973 2972 2971
2975 2976 2976 2976 2977 2977 2977 2977 2978 2978 2979 2979 2979 2979 2980 2980 2980 2980 2980 2981 2981 2981 2982 2982 2982 2983 2983 2983 2984 2984 2984 2985 2985 2985 2986 2986 2987 2987 2987 2987 2988 2988 2989 2989 2988 2988 2988 2988 2988 2988 2988 2987 2987 2986 2985 2985 2984 2983 2983 2982 2982 2981 2980 2980 2980 2980 2980 2981 2981 2980 2980 2980 2979 2979 2978 2978 2977 2976 2976 2974 2973 2972 2971 2970 2969 2968
2973 2973 2974 2974 2974 2975 2975 2975 2976 2976 2977 2977 2977 2977 2978 2978 2978 2978 2978 2979 2979 2979 2979 2980 2980 2981 2981 2982 2982 2982 2982 2983 2983 2984 2984 2984 2985 2985 2985 2986 2986 2986 2986 2987 2987 2986 2986 2986 2986 2986 2985 2985 2984 2984 2983 2982 2982 2982 2981 2981 2980 2979 2979 2978 2978 2977 2978 2978 2978 2978 2978 2977 2977 2977 2976 2975 2974 2974 2973 2972 2971 2970 2968 2967 2967 2966
2971 2971 2971 2972 2972 2972 2973 2973 2974 2974 2975 2975 2975 2975 2976 2976 2976 2976 2977 2977 2977 2977 2977 2978 2978 2979 2979 2980 2980 2980 2981 2981 2981 2982 2982 2982 2982 2983 2983 2983 2984 2984 2984 2984 2984 2984 2984 2984 2983 2983 2983 2982 2982 2982 2981 2980 2980 2979 2979 2978 2978 2978 2977 2977 2976 2976 2975 2975 2976 2976 2976 2975 2975 2974 2973 2973 2972 2971 2970 2969 2968 2967 2966 2965 2964 2964
2969 2969 2969 2970 2970 2970 2971 2971 2972 2972 2972 2973 2973 2973 2974 2974 2974 2974 2974 2975 2975 2975 2976 2976 2977 2977 2977 2977 2978 2978 2979 2979 2979 2980 2980 2980 2981 2981 2981 2982 2982 2982 2982 2982 2982 2982 2982 2981 2981 2981 2980 2980 2980 2979 2979 2978 2978 2977 2977 2976 2976 2976 2976 2975 2975 2974 2973 2973 2973 2973 2973 2972 2972 2972 2971 2970 2969 2968 2967 2967 2966 2964 2963 2963 2962 2961
2967 2967 2967 2968 2968 2968 2969 2969 2969 2970 2970 2971 2971 2971 2972 2972 2972 2972 2972 2973 2973 2973 2974 2974 2974 2975 2975 2975 2976 2976 2977 2977 2977 2977 2978 2978 2978 2979 2979 2979 2979 2980 2980 2980 2979 2979 2979 2979 2979 2978 2978 2978 2977 2977 2977 2976 2976 2975 2975 2974 2974 2974 2974 2973 2973 2972 2972 2971 2970 2970 2970 2970 2969 2969 2968 2968 2967 2966 2965 2964 2963 2962 2961 2960 2960 2959
2965 2965 2965 2966 2966 2966 2966 2967 2967 2967 2968 2968 2969 2969 2969 2970 2970 2971 2971 2971 2971 2972 2972 2972 2972 2972 2973 2973 2974 2974 2975 2975 2975 2975 2976 2976 2976 2977 2977 2977 2977 2977 2977 2977 2977 2977 2977 2977 2976 2976 2976 2975 2975 2975 2975 2974 2974 2973 2973 2972 2972 2972 2972 2971 2971 2970 2970 2969 2968 2968 2967 2967 2967 2967 2966 2966 2965 2964 2963 2962 2961 2960 2959 2958 2957 2957
2962 2963 2963 2963 2963 2963 2964 2964 2965 2965 2966 2966 2966 2967 2967 2968 2968 2968 2969 2969 2969 2970 2970 2970 2970 2971 2971 2971 2972 2972 2972 2973 2973 2973 2973 2974 2974 2974 2974 2974 2975 2975 2975 2975 2975 2975 2974 2974 2974 2974 2973 2973 2973 2972 2972 2972 2972 2971 2971 2971 2970 2970 2969 2969 2968 2968 2967 2967 2966 2966 2965 2965 2964 2964 2964 2963 2963 2962 2961 2960 2959 2957 2957 2956 2955 2954
2960 2960 2960 2960 2961 2961 2961 2962 2962 2963 2963 2964 2964 2965 2965 2966 2966 2966 2967 2967 2967 2967 2968 2968 2968 2969 2969 2970 2970 2970 2970 2971 2971 2971 2971 2971 2972 2972 2972 2972 2972 2972 2972 2972 2972 2972 2972 2972 2972 2972 2971 2971 2971 2970 2970 2970 2970 2969 2969 2968 2968 2967 2967 2967 2966 2966 2965 2964 2964 2963 2963 2962 2962 2962 2962 2961 2961 2960 2959 2958 2957 2956 2954 2953 2952 2952
2957 2957 2957 2957 2958 2958 2959 2959 2960 2960 2961 2961 2962 2962 2963 2963 2964 2964 2965 2965 2965 2966 2966 2966 2967 2967 2967 2968 2968 2968 2968 2968 2969 2969 2969 2969 2969 2969 2970 2970 2970 2970 2970 2970 2970 2970 2970 2970 2969 2969 2969 2969 2968 2968 2968 2968 2967 2967 2967 2966 2966 2965 2965 2964 2964 2963 2962 2962 2962 2961 2960 2960 2959 2959 2959 2959 2959 2958 2957 2956 2955 2953 2952 2951 2950 2949
2954 2954 2954 2955 2955 2956 2956 2957 2957 2958 2958 2959 2959 2960 2961 2961 2962 2962 2962 2963 2963 2964 2964 2964 2965 2965 2965 2966 2966 2966 2966 2966 2967 2967 2967 2967 2967 2967 2967 2967 2967 2968 2968 2968 2968 2968 2967 2967 2967 2967 2967 2967 2966 2966 2966 2966 2965 2965 2964 2964 2963 2963 2962 2962 2961 2961 2960 2959 2959 2958 2958 2957 2957 2957 2957 2957 2957 2956 2956 2954 2953 2952 2950 2949 2948 2947
2952 2952 2952 2953 2953 2954 2954 2955 2955 2956 2956 2957 2957 2958 2958 2959 2959 2960 2960 2961 2961 2962 2962 2962 2963 2963 2963 2964 2964 2964 2964 2964 2964 2965 2965 2965 2965 2965 2966 2965 2965 2966 2966 2966 2966 2966 2966 2965 2965 2965 2964 2964 2964 2964 2964 2963 2963 2962 2962 2961 2961 2961 2960 2960 2959 2958 2958 2957 2956 2956 2955 2955 2954 2954 2954 2954 2954 2954 2954 2953 2952 2950 2948 2947 2946 2945
2949 2950 2950 2951 2951 2952 2952 2953 2953 2954 2954 2955 2955 2956 2956 2957 2957 2958 2958 2959 2959 2960 2960 2961 2961 2961 2962 2962 2962 2962 2962 2962 2962 2962 2963 2963 2963 2963 2963 2963 2963 2963 2963 2963 2963 2964 2964 2963 2963 2962 2962 2962 2962 2962 2961 2961 2960 2960 2959 2958 2958 2958 2957 2957 2957 2956 2955 2955 2954 2953 2952 2952 2952 2951 2951 2951 2952 2952 2952 2951 2950 2948 2946 2945 2943 2942
2948 2948 2949 2949 2950 2950 2951 2951 2951 2952 2952 2953 2953 2954 2954 2955 2955 2956 2957 2957 2957 2958 2958 2959 2959 2959 2960 2960 2960 2960 2960 2960 2960 2961 2961 2961 2961 2961 2961 2961 2961 2961 2961 2962 2962 2962 2962 2961 2961 2960 2959 2960 2960 2959 2958 2958 2957 2957 2956 2956 2955 2955 2955 2954 2954 2953 2953 2952 2952 2951 2950 2950 2949 2949 2948 2948 2948 2949 2949 2949 2948 2947 2945 2943 2941 2940